Time,TemperatureF,DewpointF,PressureIn,WindDirection,WindDirectionDegrees,WindSpeedMPH,WindSpeedGustMPH,Humidity,HourlyPrecipIn,Conditions,Clouds,dailyrainin,SoftwareType,DateUTC
2013-05-14 00:53:00,80.0,-99.9,30.09,North,360,14.0,17.0,-999,-99.99,,,-99.99,,2013-05-14 04:53:00,
2013-05-14 01:53:00,79.0,-99.9,30.09,North,10,13.0,15.0,-999,-99.99,,,-99.99,,2013-05-14 05:53:00,
2013-05-14 02:52:00,78.0,-99.9,30.07,North,10,13.0,14.0,-999,-99.99,,,-99.99,,2013-05-14 06:52:00,
2013-05-14 03:52:00,77.0,-99.9,30.06,NNE,20,14.0,16.0,-999,-99.99,,,-99.99,,2013-05-14 07:52:00,
2013-05-14 04:52:00,76.0,-99.9,30.06,NNE,30,13.0,16.0,-999,-99.99,,,-99.99,,2013-05-14 08:52:00,
2013-05-14 04:54:00,76.0,-99.9,30.07,NNE,30,13.0,15.0,-999,-99.99,,,-99.99,,2013-05-14 08:54:00,
2013-05-14 06:53:00,75.0,-99.9,30.08,NE,40,14.0,16.0,-999,-99.99,,,-99.99,,2013-05-14 10:53:00,
2013-05-14 07:53:00,74.0,-99.9,30.10,NE,40,16.0,20.0,-999,-99.99,,,-99.99,,2013-05-14 11:53:00,
2013-05-14 08:52:00,75.0,-99.9,30.11,NE,40,18.0,22.0,-999,-99.99,,,-99.99,,2013-05-14 12:52:00,
2013-05-14 09:52:00,77.0,-99.9,30.12,ENE,60,18.0,21.0,-999,-99.99,,,-99.99,,2013-05-14 13:52:00,
2013-05-14 10:53:00,78.0,-99.9,30.13,ENE,60,18.0,22.0,-999,-99.99,,,-99.99,,2013-05-14 14:53:00,
2013-05-14 11:53:00,79.0,-99.9,30.14,ENE,70,16.0,20.0,-999,-99.99,,,-99.99,,2013-05-14 15:53:00,
2013-05-14 11:54:00,80.0,-99.9,30.15,East,90,15.0,18.0,-999,-99.99,,,-99.99,,2013-05-14 15:54:00,
2013-05-14 13:53:00,81.0,-99.9,30.14,East,80,14.0,16.0,-999,-99.99,,,-99.99,,2013-05-14 17:53:00,
2013-05-14 14:52:00,81.0,-99.9,30.14,East,90,14.0,17.0,-999,-99.99,,,-99.99,,2013-05-14 18:52:00,
2013-05-14 15:53:00,81.0,-99.9,30.11,ESE,110,17.0,22.0,-999,-99.99,,,-99.99,,2013-05-14 19:53:00,
2013-05-14 16:52:00,80.0,-99.9,30.10,ESE,120,17.0,20.0,-999,-99.99,,,-99.99,,2013-05-14 20:52:00,
2013-05-14 17:53:00,80.0,-99.9,30.09,ESE,110,20.0,23.0,-999,-99.99,,,-99.99,,2013-05-14 21:53:00,
2013-05-14 17:54:00,80.0,-99.9,30.09,ESE,110,22.0,28.0,-999,-99.99,,,-99.99,,2013-05-14 21:54:00,
2013-05-14 19:53:00,80.0,-99.9,30.10,East,90,22.0,26.0,-999,-99.99,,,-99.99,,2013-05-14 23:53:00,
2013-05-14 20:52:00,79.0,-99.9,30.11,East,90,20.0,24.0,-999,-99.99,,,-99.99,,2013-05-15 00:52:00,
2013-05-14 21:52:00,78.0,-99.9,30.12,East,80,21.0,25.0,-999,-99.99,,,-99.99,,2013-05-15 01:52:00,
2013-05-14 22:52:00,77.0,-99.9,30.14,East,80,20.0,25.0,-999,-99.99,,,-99.99,,2013-05-15 02:52:00,
2013-05-14 22:54:00,76.0,-99.9,30.15,ENE,70,18.0,21.0,-999,-99.99,,,-99.99,,2013-05-15 02:54:00,